Waarnemingen

Advertentie
Mijn weer
Lossiemouth, Groot Brittannië (3068): temperatuur & dauwpunt: 26.03.2020 15:00:00 - 01.04.2020 15:00:00 (BST)Lossiemouth, Groot Brittannië (3068): windsnelheid & windstoten: 26.03.2020 15:00:00 - 01.04.2020 15:00:00 (BST)Lossiemouth, Groot Brittannië (3068): windrichting: 26.03.2020 15:00:00 - 01.04.2020 15:00:00 (BST)Lossiemouth, Groot Brittannië (3068): luchtdruk: 26.03.2020 15:00:00 - 01.04.2020 15:00:00 (BST)Lossiemouth, Groot Brittannië (3068): zicht: 26.03.2020 15:00:00 - 01.04.2020 15:00:00 (BST)Lossiemouth, Groot Brittannië (3068): neerslag: 26.03.2020 15:00:00 - 01.04.2020 15:00:00 (BST)
Datum & Tijd tt [°C] td [°C] ff [km/u] ff [kn] fx [km/u] fx [kn] dd ppp [hPa] vv [km] rr [mm]
01.04.2020 15:00:00 10,2 5,8 41 22 59 32 W 1015,1 20 0,0
01.04.2020 14:00:00 9,4 3,8 42 23 57 31 W 1015,4 10 0,0
01.04.2020 13:00:00 9,1 4,0 39 21 57 31 WZW 1016,2 10 0,0
01.04.2020 12:00:00 8,6 3,2 31 17 55 30 W 1016,8 10 0,0
01.04.2020 11:00:00 7,8 2,4 34 18 50 27 WZW 1017,4 10 0,0
01.04.2020 10:00:00 7,3 2,0 39 21 54 29 W 1018,3 10 0,0
01.04.2020 09:00:00 6,6 2,6 28 15 - - WZW 1019,0 10 0,0
01.04.2020 08:00:00 5,9 2,2 29 16 46 25 WZW 1019,9 10 0,0
01.04.2020 07:00:00 5,6 2,2 28 15 - - W 1020,5 10 0,0
01.04.2020 06:00:00 5,4 2,8 24 13 - - WZW 1021,2 10 0,0
01.04.2020 05:00:00 5,1 2,9 26 14 - - WZW 1022,0 10 0,2
01.04.2020 04:00:00 5,6 2,6 22 12 - - WZW 1023,1 10 0,0
01.04.2020 03:00:00 5,4 2,7 21 11 - - WZW 1024,1 10 0,0
01.04.2020 02:00:00 5,9 2,9 21 11 - - WZW 1025,2 10 0,0
01.04.2020 01:00:00 5,6 2,5 15 8 - - WZW 1026,0 10 0,0
01.04.2020 00:00:00 6,1 3,1 18 10 - - W 1027,1 10 0,0
31.03.2020 23:00:00 6,5 3,1 22 12 - - W 1028,1 10 0,0
31.03.2020 22:00:00 6,7 2,8 24 13 - - W 1028,6 10 0,0
31.03.2020 21:00:00 6,7 3,5 18 10 - - W 1029,3 10 0,0
31.03.2020 20:00:00 6,5 3,7 15 8 - - W 1029,7 10 0,0
31.03.2020 19:00:00 7,3 3,8 28 15 - - WNW 1030,0 10 0,0
31.03.2020 18:00:00 7,8 4,7 24 13 - - WNW 1030,2 35 0,0
31.03.2020 17:00:00 7,2 5,0 29 16 - - WNW 1031,2 5 0,0
31.03.2020 16:00:00 8,7 3,9 24 13 - - W 1031,6 10 0,0
31.03.2020 15:00:00 8,8 3,1 22 12 - - W 1032,2 10 0,0
31.03.2020 14:00:00 8,8 3,8 24 13 - - W 1032,7 10 0,0
31.03.2020 13:00:00 8,6 3,7 26 14 - - W 1033,0 10 0,0
31.03.2020 12:00:00 7,9 3,7 22 12 - - W 1033,6 10 0,0
31.03.2020 11:00:00 7,7 3,9 31 17 - - W 1034,2 10 0,0
31.03.2020 10:00:00 7,2 4,1 24 13 - - WZW 1034,5 10 0,0
31.03.2020 09:00:00 5,5 3,7 24 13 - - W 1035,0 10 0,0
31.03.2020 08:00:00 4,4 3,3 18 10 - - WZW 1035,5 10 0,0
31.03.2020 07:00:00 4,0 3,0 18 10 - - WZW 1035,6 10 0,2
31.03.2020 06:00:00 4,8 3,5 21 11 - - WZW 1035,6 30 0,0
31.03.2020 05:00:00 4,8 3,6 18 10 - - WZW 1035,8 10 0,0
31.03.2020 04:00:00 4,8 3,5 18 10 - - W 1036,0 10 0,0
31.03.2020 03:00:00 4,5 3,1 15 8 - - WZW 1036,6 10 0,0
31.03.2020 02:00:00 5,2 3,2 16 9 - - WZW 1036,9 10 0,0
31.03.2020 01:00:00 5,5 3,5 18 10 - - W 1037,2 10 0,0
31.03.2020 00:00:00 5,9 3,9 21 11 - - WNW 1037,7 10 0,0
30.03.2020 23:00:00 6,0 3,9 15 8 - - WNW 1037,9 10 0,0
30.03.2020 22:00:00 5,9 3,9 16 9 - - NW 1038,2 10 0,0
30.03.2020 21:00:00 6,4 4,0 16 9 - - NW 1038,1 25 0,0
30.03.2020 20:00:00 6,4 3,9 22 12 - - NW 1038,0 10 0,0
30.03.2020 19:00:00 7,1 4,9 15 8 - - NW 1038,1 10 0,0
30.03.2020 18:00:00 7,3 5,2 15 8 - - NW 1038,2 10 0,0
30.03.2020 17:00:00 7,8 6,4 13 7 - - NNW 1038,3 10 0,2
30.03.2020 16:00:00 7,5 5,6 18 10 - - N 1038,6 7 0,0
30.03.2020 15:00:00 7,6 6,1 16 9 - - NNW 1038,7 10 0,2
30.03.2020 14:00:00 7,5 5,6 15 8 - - NW 1039,0 10 0,2
30.03.2020 13:00:00 7,8 5,2 21 11 - - NW 1039,2 10 0,0
30.03.2020 12:00:00 8,1 4,7 15 8 - - NW 1039,5 10 0,0
30.03.2020 11:00:00 8,1 4,5 18 10 - - NW 1039,6 10 0,0
30.03.2020 10:00:00 7,3 4,4 18 10 - - WNW 1040,1 10 0,0
30.03.2020 09:00:00 7,0 4,4 18 10 - - NW 1040,0 10 0,0
30.03.2020 08:00:00 6,9 4,7 24 13 - - NW 1040,1 10 0,0
30.03.2020 07:00:00 6,2 4,6 18 10 - - WNW 1040,2 10 0,0
30.03.2020 06:00:00 6,7 4,0 22 12 - - WNW 1040,2 10 0,0
30.03.2020 05:00:00 6,2 3,9 21 11 - - WNW 1040,4 10 0,0
30.03.2020 04:00:00 6,1 4,0 18 10 - - WNW 1040,5 10 0,0
30.03.2020 03:00:00 6,7 4,4 21 11 - - WNW 1041,1 10 0,0
30.03.2020 02:00:00 6,7 4,4 18 10 - - WNW 1041,3 10 0,0
30.03.2020 01:00:00 6,5 4,7 22 12 - - WNW 1041,7 10 0,0
30.03.2020 00:00:00 5,8 4,6 21 11 - - W 1042,3 10 0,0
29.03.2020 23:00:00 6,3 4,3 21 11 - - W 1042,8 10 0,0
29.03.2020 22:00:00 6,6 3,9 24 13 - - WNW 1043,0 10 0,0
29.03.2020 21:00:00 6,5 3,8 24 13 - - WNW 1043,4 10 0,0
29.03.2020 20:00:00 6,6 3,6 26 14 - - WNW 1043,7 30 0,0
29.03.2020 19:00:00 6,8 3,6 29 16 - - WNW 1043,9 10 0,0
29.03.2020 18:00:00 6,9 3,6 28 15 46 25 WNW 1044,3 10 0,0
29.03.2020 17:00:00 7,0 3,4 26 14 - - WNW 1044,7 10 0,0
29.03.2020 16:00:00 6,8 2,1 26 14 - - W 1045,5 10 0,0
29.03.2020 15:00:00 7,0 0,8 29 16 46 25 W 1045,9 10 0,0
29.03.2020 14:00:00 7,0 -0,5 28 15 - - W 1046,7 10 0,0
29.03.2020 13:00:00 6,1 -1,6 28 15 - - WNW 1047,4 10 0,0
29.03.2020 12:00:00 5,6 -1,8 24 13 - - W 1047,8 10 0,0
29.03.2020 11:00:00 4,7 -2,2 21 11 - - WNW 1048,6 10 0,0
29.03.2020 10:00:00 4,4 -3,7 21 11 - - WNW 1048,8 10 0,0
29.03.2020 09:00:00 4,2 -3,0 18 10 - - W 1048,6 10 0,0
29.03.2020 08:00:00 3,2 -4,4 9 5 - - NNW 1048,8 40 0,0
29.03.2020 07:00:00 3,0 -5,3 13 7 - - N 1048,5 10 0,0
29.03.2020 06:00:00 3,2 -5,6 18 10 - - N 1048,5 10 0,0
29.03.2020 05:00:00 3,1 -5,5 22 12 - - N 1048,8 10 0,0
29.03.2020 04:00:00 3,3 -5,6 26 14 - - N 1048,8 10 0,0
29.03.2020 03:00:00 3,4 -5,7 28 15 - - N 1048,9 10 0,0
29.03.2020 02:00:00 3,6 -4,5 31 17 - - N 1048,6 10 0,0
29.03.2020 01:00:00 3,7 -5,6 29 16 - - N 1048,2 10 0,0
29.03.2020 00:00:00 3,6 -6,0 28 15 - - N 1048,1 10 0,0
28.03.2020 23:00:00 3,8 -4,9 28 15 52 28 NNO 1047,6 35 0,0
28.03.2020 22:00:00 3,8 -5,3 29 16 - - N 1047,2 10 0,0
28.03.2020 21:00:00 4,0 -3,7 35 19 46 25 N 1046,7 10 0,0
28.03.2020 20:00:00 4,1 -2,7 34 18 46 25 N 1046,2 8 0,0
28.03.2020 19:00:00 4,5 -2,2 22 12 52 28 NNO 1045,2 10 0,0
28.03.2020 18:00:00 4,6 -1,2 26 14 48 26 NO 1044,5 10 0,0
28.03.2020 17:00:00 5,5 -2,1 31 17 52 28 NNO 1044,2 10 0,0
28.03.2020 16:00:00 5,1 2,3 26 14 50 27 NNO 1043,9 7 0,2
28.03.2020 15:00:00 5,4 -0,2 41 22 54 29 NNO 1043,5 10 0,0
28.03.2020 14:00:00 6,5 -3,0 34 18 - - NNO 1042,9 10 0,0
28.03.2020 13:00:00 7,2 -0,5 31 17 - - NNO 1042,6 10 0,0
28.03.2020 12:00:00 5,1 -1,4 35 19 46 25 NNO 1041,8 20 0,0
28.03.2020 11:00:00 5,4 0,4 28 15 - - NNO 1041,1 10 0,0
28.03.2020 10:00:00 5,3 0,3 34 18 - - N 1040,2 10 0,0
28.03.2020 09:00:00 5,3 2,2 22 12 - - N 1039,4 10 0,0
28.03.2020 08:00:00 4,6 1,6 28 15 - - N 1038,5 10 0,0
28.03.2020 07:00:00 5,2 1,8 28 15 - - NNW 1038,0 10 0,0
28.03.2020 06:00:00 5,8 1,7 15 8 - - NW 1037,5 10 0,0
28.03.2020 05:00:00 6,0 2,5 22 12 - - NW 1037,2 20 0,0
28.03.2020 04:00:00 6,2 2,2 15 8 - - NNW 1037,2 10 0,0
28.03.2020 03:00:00 6,1 4,0 16 9 - - NNW 1036,8 10 0,0
28.03.2020 02:00:00 6,2 4,3 24 13 - - NNW 1036,3 10 0,2
28.03.2020 01:00:00 3,8 3,0 13 7 - - W 1036,0 10 0,0
28.03.2020 00:00:00 1,6 0,2 8 4 - - WZW 1035,6 10 0,0
27.03.2020 23:00:00 3,4 2,5 9 5 - - NW 1035,4 10 0,0
27.03.2020 22:00:00 3,3 0,9 8 4 - - W 1035,0 10 0,0
27.03.2020 21:00:00 4,7 2,6 4 2 - - WNW 1034,5 10 0,0
27.03.2020 20:00:00 5,9 2,7 5 3 - - NW 1034,0 45 0,0
27.03.2020 19:00:00 7,3 2,8 5 3 - - N 1033,4 10 0,0
27.03.2020 18:00:00 8,5 2,3 8 4 - - NNO 1033,0 40 0,0
27.03.2020 17:00:00 8,8 1,6 4 2 - - NNO 1032,9 10 0,0
27.03.2020 16:00:00 9,4 1,8 9 5 - - NNO 1033,0 10 0,0
27.03.2020 15:00:00 9,7 0,7 8 4 - - NNO 1032,7 10 0,0
27.03.2020 14:00:00 9,8 2,4 5 3 - - NNW 1032,8 10 0,0
27.03.2020 13:00:00 8,9 4,4 8 4 - - NNW 1032,8 45 0,0
27.03.2020 12:00:00 7,5 4,2 11 6 - - NNW 1032,6 40 0,0
27.03.2020 11:00:00 7,7 4,8 5 3 - - WNW 1032,0 40 0,0
27.03.2020 10:00:00 7,4 5,7 11 6 - - NW 1031,9 10 0,0
27.03.2020 09:00:00 6,4 5,3 11 6 - - NW 1031,1 10 0,0
27.03.2020 08:00:00 5,4 4,9 4 2 - - ZZW 1030,4 10 0,0
27.03.2020 07:00:00 5,0 4,1 5 3 - - ZW 1030,2 10 0,0
27.03.2020 06:00:00 5,4 4,6 9 5 - - WZW 1029,6 10 0,0
27.03.2020 05:00:00 5,8 4,6 5 3 - - WZW 1029,6 10 0,0
27.03.2020 04:00:00 5,9 3,0 5 3 - - W 1029,3 10 0,0
27.03.2020 03:00:00 6,5 2,0 5 3 - - OZO 1028,9 10 0,0
27.03.2020 02:00:00 6,4 1,9 8 4 - - OZO 1028,8 40 0,0
27.03.2020 01:00:00 6,8 2,1 9 5 - - O 1028,7 10 0,0
27.03.2020 00:00:00 6,9 3,4 9 5 - - O 1029,0 10 0,0
26.03.2020 23:00:00 6,7 4,8 11 6 - - O 1028,9 10 0,0
26.03.2020 22:00:00 6,4 5,0 13 7 - - ONO 1028,9 10 0,0
26.03.2020 21:00:00 6,1 4,8 11 6 - - NO 1029,0 10 0,0
26.03.2020 20:00:00 6,3 4,7 11 6 - - NO 1028,9 10 0,0
26.03.2020 19:00:00 7,3 3,3 9 5 - - ONO 1028,5 10 0,0
26.03.2020 18:00:00 7,3 3,1 11 6 - - O 1028,5 10 0,0
26.03.2020 17:00:00 7,9 1,4 9 5 - - ONO 1028,3 40 0,0
26.03.2020 16:00:00 8,1 1,9 11 6 - - O 1028,4 10 0,0
26.03.2020 15:00:00 - - - - - - - - - -

tt = temperatuur
td = dauwpunt
ff = windsnelheid
fx = windstoten
dd = windrichting
ppp = luchtdruk
vv = zicht
rr = neerslag

Weerstations in de omgeving